Pontianak, Indonesia

12:13 PM WIB on March 28, 2017 (GMT +0700)
Supadio

Weather History for WIOO - April, 2013

Change the Weather History Date:

Saturday, April 13, 2013

  Actual Average Record
Temperature  
Mean Temperature 84 °F -  
Max Temperature 93 °F - - ()
Min Temperature 76 °F - - ()
Cooling Degree Days 20    
Growing Degree Days 34 (Base 50)    
Moisture  
Dew Point 77 °F    
Average Humidity 74    
Maximum Humidity 94    
Minimum Humidity 48    
Precipitation  
Precipitation 0.00 in - - ()
Sea Level Pressure  
Sea Level Pressure 29.77 in    
Wind  
Wind Speed 3 mph ()    
Max Wind Speed 10 mph    
Max Gust Speed -    
Visibility 5.4 miles    
Events      
T = Trace of Precipitation, MM = Missing Value Source: Averaged Metar Reports

Daily Weather History Graph

Daily Weather History Graph

Search for Another Location

Airport or City:

Trip Planner

Search our weather history database for the weather conditions in past years. The results will help you decide how hot, cold, wet, or windy it might be!

Date:

Astronomy

Apr. 13, 2013 Rise Set
Actual Time 5:39 AM WIB 5:46 PM WIB
Civil Twilight 5:18 AM WIB 6:07 PM WIB
Nautical Twilight 4:54 AM WIB 6:31 PM WIB
Astronomical Twilight 4:30 AM WIB 6:55 PM WIB
Moon 7:41 AM WIB (4/13) 8:04 PM WIB (4/13)
Length of Visible Light 12h 48m
Length of Day
12h 06m
Waxing Crescent, 8% of the Moon is Illuminated
Apr 13
Waxing Crescent
Apr 18
First Quarter
Apr 26
Full
May 2
Last Quarter
May 10
New

Hourly Weather History & Observations

Time (WIB) Temp. Heat Index Dew Point Humidity Pressure Visibility Wind Dir Wind Speed Gust Speed Precip Events Conditions
1:00 AM 80 °F - 77 °F 86% 29.83 in 4 mi Calm Calm - -   Partly Cloudy
4:00 AM 78 °F - 76 °F 94% 29.77 in 4 mi Calm Calm - -   Partly Cloudy
5:00 AM 77.0 °F - 75.2 °F 94% 29.77 in 3.7 mi Calm Calm - N/A   Scattered Clouds
5:30 AM 77.0 °F - 75.2 °F 94% 29.77 in 5.0 mi Calm Calm - N/A   Mostly Cloudy
7:00 AM 78 °F - 76 °F 94% 29.80 in 5 mi Calm Calm - -   Mostly Cloudy
7:00 AM 78.8 °F - 77.0 °F 94% 29.77 in 5.0 mi Calm Calm - N/A   Mostly Cloudy
7:30 AM - - - N/A% 29.80 in 6.2 mi North 5.8 mph - N/A   Mostly Cloudy
8:30 AM - - - N/A% 29.80 in 6.2 mi North 3.5 mph - N/A   Partly Cloudy
9:30 AM 86.0 °F 99.3 °F 78.8 °F 79% 29.80 in 6.2 mi Calm Calm - N/A   Mostly Cloudy
10:00 AM 87 °F - 79 °F 71% 29.84 in 6 mi North 5.8 mph - -   Partly Cloudy
10:00 AM 87.8 °F 102.5 °F 78.8 °F 75% 29.83 in 6.2 mi North 5.8 mph - N/A   Scattered Clouds
10:30 AM 89.6 °F 102.2 °F 77.0 °F 66% 29.80 in 6.2 mi Calm Calm - N/A   Scattered Clouds
11:00 AM 89.6 °F 102.2 °F 77.0 °F 66% 29.77 in 6.2 mi North 6.9 mph - N/A   Scattered Clouds
12:00 PM 91.4 °F 105.1 °F 77.0 °F 63% 29.77 in 6.2 mi SW 9.2 mph - N/A   Scattered Clouds
12:30 PM 91.4 °F 105.1 °F 77.0 °F 63% 29.74 in 6.2 mi North 5.8 mph - N/A   Mostly Cloudy
1:00 PM 93 °F - 76 °F 48% 29.76 in 6 mi South 5.8 mph - -   Mostly Cloudy
1:00 PM 93.2 °F 105.0 °F 75.2 °F 56% 29.74 in 6.2 mi South 5.8 mph - N/A   Mostly Cloudy
2:00 PM 93.2 °F 107.2 °F 77.0 °F 59% 29.71 in 6.2 mi South 5.8 mph - N/A   Mostly Cloudy
2:30 PM 93.2 °F 107.2 °F 77.0 °F 59% 29.71 in 6.2 mi North 5.8 mph - N/A   Mostly Cloudy
3:00 PM 93.2 °F 105.0 °F 75.2 °F 56% 29.71 in 6.2 mi North 5.8 mph - N/A   Mostly Cloudy
3:30 PM 91.4 °F 107.2 °F 78.8 °F 66% 29.68 in 6.2 mi North 6.9 mph - N/A   Mostly Cloudy
4:00 PM 89 °F - 79 °F 66% 29.73 in 6 mi North 10.4 mph - -   Mostly Cloudy
4:00 PM 89.6 °F 104.7 °F 78.8 °F 70% 29.71 in 6.2 mi North 10.4 mph - N/A   Scattered Clouds
5:00 PM 87.8 °F 99.7 °F 77.0 °F 70% 29.71 in 6.2 mi SSW 6.9 mph - N/A   Scattered Clouds
5:30 PM 87.8 °F 99.7 °F 77.0 °F 70% 29.71 in 6.2 mi SSW 6.9 mph - N/A   Scattered Clouds
6:00 PM 87.8 °F 99.7 °F 77.0 °F 70% 29.71 in 6.2 mi SSW 6.9 mph - N/A   Scattered Clouds
6:30 PM 87.8 °F 99.7 °F 77.0 °F 70% 29.74 in 4.3 mi Calm Calm - N/A   Scattered Clouds
7:00 PM 85 °F - 78 °F 75% 29.77 in 4 mi Calm Calm - -   Partly Cloudy
8:00 PM 82.4 °F 92.4 °F 78.8 °F 89% 29.80 in 3.7 mi Calm Calm - N/A   Scattered Clouds
8:30 PM 82.4 °F 92.4 °F 78.8 °F 89% 29.80 in - North - - N/A   Scattered Clouds
9:00 PM 82.4 °F 90.9 °F 77.0 °F 84% 29.80 in 3.7 mi Calm Calm - N/A   Scattered Clouds
9:30 PM 82.4 °F 90.9 °F 77.0 °F 84% 29.80 in 3.7 mi Calm Calm - N/A   Scattered Clouds
10:00 PM 82 °F - 78 °F 86% 29.84 in 4 mi Calm Calm - -   Partly Cloudy